Location: Dana
(41.8364°N, 106.7042°W)
Time: 10:55:30
(UTC+00:00)

Tiros 1 despin weight - Pass Details

Date: 12 May 2026
Orbit: 554 x 591 km, 48.2° (Epoch: 10 June)

Event Time Altitude Azimuth Distance (km) Brightness Sun altitude
Rises 13:34:44 0° 241° (WSW) 2,742 ? 17.8°
Reaches altitude 10° 13:36:59 10° 241° (WSW) 1,843 ? 18.2°
Maximum altitude 13:41:12 90° 189° (S) 561 ? 19.0°
Drops below altitude 10° 13:45:24 10° 63° (ENE) 1,836 ? 19.8°
Sets 13:47:39 0° 63° (ENE) 2,731 ? 20.2°
